Weather in Morozova

Russia / Irkutsk Oblast     53°11′51″N   103°31′06″E
temp.,
°C
wind,
m/s
gust,
m/s
humid.,
%
clouds,
%
prec.,
mm/h
press.,
hPa
HPBL,
m
20 january, thu
thu2023:00−13ne1197100 0.1 10299
02:00−13ene1197100 0.3 102911
05:00−13sse1197100 0.3 10309
08:00−14sse1198100 0.4 103110
11:00−12s1195100 0.1 103267
14:00−10s119194 0.3 1031202
17:00−14wsw009918 0.0 10339
20:00−20nne0010099 0.0 10359
21 january, fri
fri2123:00−22ne11100100 0.0 10379
02:00−24ne11100100 0.1 10389
05:00−24ne11100100 0.1 10399
08:00−23ene1110099 0.1 10409
11:00−19e0099100 0.1 104047
14:00−15nne019495 0.1 1037131
17:00−18nw1110099 0.0 10389
20:00−22nne11100100 0.0 10399
22 january, sat
sat2223:00−22ne11100100 0.0 10389
02:00−22ne11100100 0.0 10389
05:00−22ne11100100 0.0 103810
08:00−20ne1199100 0.0 103714
11:00−16ne1194100 0.0 103778
14:00−13ne1189100 0.0 1036208
17:00−13n2294100 0.0 103526
20:00−16n2296100 0.1 103623
23 january, sun
sun2323:00−16n1195100 0.1 103729
02:00−15n1197100 0.1 103736
05:00−15nnw1197100 0.3 103756
08:00−15nnw1197100 0.6 103761
11:00−13nw1294100 0.4 1038174
14:00−12nw2391100 0.7 1037384
17:00−12nnw2395100 0.2 103793
20:00−15nw1198100 0.3 10389
24 january, mon
mon2423:00−15wnw1198100 0.1 103810
02:00−17nw1199100 0.1 10389
05:00−18nw11100100 0.0 10389
08:00−17nw0099100 0.1 103810
11:00−14nw1195100 0.1 103780
14:00−11nw1291100 0.2 1035245
17:00−12nnw119779 0.2 103511
20:00−16w1199100 0.3 103610